Weather in Oktyabrskiy

Russia / Republic of Kalmykia     46°10′29″N   42°47′40″E
temp.,
°C
wind,
m/s
gust,
m/s
humid.,
%
clouds,
%
prec.,
mm/h
press.,
hPa
HPBL,
m
18 september, sat
sat1800:00+14se35508 0.0 1017158
03:00+13se35535 0.0 1017144
06:00+13sse46639 0.0 1017165
09:00+18se46525 0.0 1017676
12:00+22ese664288 0.0 10161381
15:00+23ese66398 0.0 10141667
18:00+21e71044100 0.0 1014423
21:00+19ese71246100 0.0 1015456
19 september, sun
sun1900:00+18se71256100 0.0 1014387
03:00+17se61265100 0.0 1015439
06:00+16se71271100 0.0 1015441
09:00+19se8105998 0.0 1015711
12:00+23se894872 0.0 10141196
15:00+25se784362 0.0 10131420
18:00+24se6104892 0.0 1013273
21:00+21se81456100 0.1 1013475
20 september, mon
mon2000:00+20sse6957100 0.2 1013372
03:00+19se4760100 0.4 1013368
06:00+18se5765100 0.3 1012292
09:00+22s5655100 0.3 1013439
12:00+26wsw8124181 0.0 10122255
15:00+27wsw8103699 0.1 10112103
18:00+23wnw2352100 0.0 101244
21:00+21ssw345496 0.0 101350
21 september, tue
tue2100:00+20sw4658100 0.0 101399
03:00+20wsw365898 0.0 1014150
06:00+19sw3762100 0.0 1014213
09:00+20wnw4569100 0.4 1014367
12:00+20ne2270100 0.3 1014303
15:00+21n5467100 0.3 1012375
18:00+18nw5687100 0.6 1014328
21:00+16wnw4588100 1.6 1015338
22 september, wed
wed2200:00+15w69785 0.4 1015483
03:00+12w47815 0.4 1015258
06:00+11wsw48845 0.0 1016209
09:00+15w79643 0.0 1017784
12:00+18w810402 0.0 10161367
15:00+19wnw673612 0.0 10161622
18:00+16wnw4543100 0.0 1016362
21:00+14nw575496 0.0 1017389